Regional Weather Roundup
Issued by NWS

Home | Current Version | Previous Version | Graphics & Text | Print | Product List | Glossary On
Versions: 1 2 3 4 5 6 7 8 9 10 11 12 13 14 15 16 17 18 19 20 21 22 23 24 25 26 27 28 29 30 31 32 33 34 35 36 37 38 39 40 41 42 43 44 45 46 47 48 49 50
502
ASUS43 KIND 221800
RWRIN

WEATHER ROUNDUP FOR INDIANA
NATIONAL WEATHER SERVICE INDIANAPOLIS IN
200 PM EDT SUN OCT 22 2017

NOTE: "FAIR" INDICATES FEW OR NO CLOUDS BELOW 12,000 FEET WITH NO
SIGNIFICANT WEATHER AND/OR OBSTRUCTIONS TO VISIBILITY.

* - STATION DOES NOT REPORT WEATHER SUCH AS PRECIPITATION OR FOG.

+ - STATION NOT QUALITY CONTROLLED BY THE NATIONAL WEATHER SERVICE.
    USE DATA WITH CAUTION...ESPECIALLY DEWPOINT AND RELATIVE
    HUMIDITY OBSERVATIONS.

INZ001>003-010>013-019-020-221900-
NORTHWEST INDIANA

CITY           SKY/WX    TMP DP  RH WIND       PRES   REMARKS
GARY /AIRPORT/ CLOUDY    72  61  68 S14       29.94F
MONTICELLO +   CLOUDY    72  57  60 S12       29.99F
6HR MIN TEMP:  60; 6HR MAX TEMP:  72;


$$

LMZ046-743>745-221900-
SOUTHERN LAKE MICHIGAN

STATION/POSITION TIME  TEMP    WIND        PRES    WAVE
                       AIR SEA DIR/SP/G            HT
                 (UTC) (F)     (DEG/KT/KT) (MB)    (FT)
BURNS HARBOR     1740   71     180/ 15/ 25 1014.6F
MICHIGAN CITY    1730   70     170/ 17/ 22   N/A
5NW MICH CITY    1750   67 58  180/ 14/ 19   N/A     2

$$

INZ004-005-014>016-021>024-221900-
NORTH CENTRAL INDIANA

CITY           SKY/WX    TMP DP  RH WIND       PRES   REMARKS
GOSHEN         MOSUNNY   73  55  53 S18G29    30.02F
6HR MIN TEMP:  58; 6HR MAX TEMP:  75;

PERU/GRISSOM   CLOUDY    73  58  57 S15       30.02F
6HR MIN TEMP:  58; 6HR MAX TEMP:  73;

SOUTH BEND     CLOUDY    71  59  65 S17G26    30.00F
6HR MIN TEMP:  60; 6HR MAX TEMP:  71;


$$

INZ006>009-017-018-025>027-221900-
NORTHEAST INDIANA

CITY           SKY/WX    TMP DP  RH WIND       PRES   REMARKS
FORT WAYNE     PTSUNNY   76  56  49 S22G28    30.06F
6HR MIN TEMP:  55; 6HR MAX TEMP:  77;

KENDALLVILLE + PTSUNNY   74  56  53 S15G22    30.07F

$$

INZ028-029-035-036-043>045-051>053-221900-
WEST CENTRAL INDIANA

CITY           SKY/WX    TMP DP  RH WIND       PRES   REMARKS
LAFAYETTE      CLOUDY    72  59  63 S10G24    29.98F
6HR MIN TEMP:  61; 6HR MAX TEMP:  72;

TERRE HAUTE    PTSUNNY   76  59  55 S14G24    30.00F
6HR MIN TEMP:  64; 6HR MAX TEMP:  77; 6HR PCP: TRACE;


$$

INZ030>032-037>040-046>048-054>057-064-065-221900-
CENTRAL INDIANA

CITY           SKY/WX    TMP DP  RH WIND       PRES   REMARKS
COLUMBUS       SUNNY     73  50  43 S16       30.09F
GREENWOOD *+   MOSUNNY   80  60  50 S18G28    30.08F
6HR MIN TEMP:  59; 6HR MAX TEMP:  80;

INDIANAPOLIS   PTSUNNY   78  59  51 S17       30.04F
6HR MIN TEMP:  57; 6HR MAX TEMP:  78;

-EAGLE CREEK   SUNNY     76  58  53 S14G22    30.03F
6HR MIN TEMP:  58; 6HR MAX TEMP:  77;

KOKOMO +       CLOUDY    74  58  57 S21G31    30.04F
6HR MIN TEMP:  58; 6HR MAX TEMP:  75;

MT COMFORT *+  SUNNY     75  61  60 S16       30.07F
SHELBYVILLE    SUNNY     76  55  48 S17G29    30.07F
6HR MIN TEMP:  59; 6HR MAX TEMP:  76; 6HR PCP: TRACE;


$$

INZ033-034-041-042-049-050-058-059-221900-
EAST CENTRAL INDIANA

CITY           SKY/WX    TMP DP  RH WIND       PRES   REMARKS
MUNCIE         SUNNY     78  55  44 S12G22    30.07F
6HR MIN TEMP:  60; 6HR MAX TEMP:  78;

RICHMOND +     SUNNY     72  54  53 S18       30.13F

$$

INZ060-061-067>069-081>083-085>088-221900-
SOUTHWEST INDIANA

CITY           SKY/WX    TMP DP  RH WIND       PRES   REMARKS
EVANSVILLE     PTSUNNY   77  58  51 S13G25    30.04F
6HR MIN TEMP:  62; 6HR MAX TEMP:  77; 6HR PCP: TRACE;

HUNTINGBURG +  PTSUNNY   76  59  55 S17G28    30.06F
6HR MIN TEMP:  61; 6HR MAX TEMP:  77;


$$

INZ062-063-066-070>080-084-089>092-221900-
SOUTH CENTRAL AND SOUTHEAST INDIANA

CITY           SKY/WX    TMP DP  RH WIND       PRES   REMARKS
BLOOMINGTON    SUNNY     78  57  48 S16G24    30.04F
6HR MIN TEMP:  58; 6HR MAX TEMP:  79; 6HR PCP: TRACE;

MADISON *+     MOSUNNY   75  54  46 SE10G18   30.13F
SEYMOUR +      SUNNY     79  57  47 S16G23    30.08

$$





USA.gov is the U.S. government's official web portal to all federal, state and local government web resources and services.